Weather in Kipelovo

Russia / Vologda Oblast     59°14′11″N   39°08′28″E
temp.,
°C
wind,
m/s
gust,
m/s
humid.,
%
clouds,
%
prec.,
mm/h
press.,
hPa
HPBL,
m
13 may, thu
thu1300:00+14e357966 0.0 102270
03:00+12ese25909 0.0 102177
06:00+15se288382 0.0 1020218
09:00+18se4868100 0.0 1020589
12:00+21se585923 0.2 10191484
15:00+23sse574436 0.6 10172318
18:00+21e355982 0.1 1015373
21:00+16sse41385100 3.1 1014503
14 may, fri
fri1400:00+14ssw3896100 0.9 1014471
03:00+11s399834 0.9 1016330
06:00+11ssw31192100 0.0 1016428
09:00+15ssw41070100 0.0 1017850
12:00+18ssw57515 0.0 10171714
15:00+19sw464743 0.0 10161727
18:00+18sw245865 0.0 1016834
21:00+15se227275 0.0 101531
15 may, sat
sat1500:00+12se2791100 0.1 1015140
03:00+13ese31098100 1.8 1013354
06:00+14ese41195100 0.4 1012431
09:00+18sse41181100 0.4 1010680
12:00+23s5105375 0.0 10091727
15:00+21sse61263100 0.9 10081398
18:00+18sse498098 2.1 1006598
21:00+16se4991100 5.1 1006240
16 may, sun
sun1600:00+13ssw412951 1.3 1006389
03:00+12ssw5129651 1.3 1007496
06:00+12sw51193100 0.0 1008569
09:00+14sw499083 0.0 1010610
12:00+16wsw487781 0.0 1011968
15:00+14sw3894100 2.8 1012338
18:00+15sw2591100 0.6 1013354
21:00+12wsw119438 0.6 101311
17 may, mon
mon1700:00+11wsw22955 0.0 101515
03:00+10w11950 0.0 101610
06:00+13se1191100 0.0 101766
09:00+17ese127465 0.0 1017488
12:00+21se2354100 0.0 10171489
15:00+21s3352100 0.0 10161604
18:00+20se2467100 0.0 1015151
21:00+15se3790100 0.0 1015116